Year,Month,Day,Hour,Minute,Value (Times are PST for temperature in C)
2024,05,04,00,03,10.70
2024,05,04,00,08,10.70
2024,05,04,00,13,10.70
2024,05,04,00,18,10.60
2024,05,04,00,23,10.50
2024,05,04,00,28,10.40
2024,05,04,00,33,10.40
2024,05,04,00,38,10.30
2024,05,04,00,43,10.20
2024,05,04,00,48,10.20
2024,05,04,00,53,10.20
2024,05,04,00,58,10.20
2024,05,04,01,03,10.20
2024,05,04,01,08,10.20
2024,05,04,01,13,10.20
2024,05,04,01,18,10.20
2024,05,04,01,23,10.20
2024,05,04,01,28,10.20
2024,05,04,01,33,10.20
2024,05,04,01,38,10.20
2024,05,04,01,43,10.20
2024,05,04,01,48,10.20
2024,05,04,01,53,10.20
2024,05,04,01,58,10.20
2024,05,04,02,03,10.20
2024,05,04,02,08,10.20
2024,05,04,02,13,10.20
2024,05,04,02,18,10.20
2024,05,04,02,23,10.20
2024,05,04,02,28,10.10
2024,05,04,02,33,10.10
2024,05,04,02,38,10.10
2024,05,04,02,43,10.10
2024,05,04,02,48,10.00
2024,05,04,02,53,10.00
2024,05,04,02,58,10.00
2024,05,04,03,03,10.00
2024,05,04,03,08,9.90
2024,05,04,03,13,9.90
2024,05,04,03,18,9.90
2024,05,04,03,23,9.90
2024,05,04,03,28,9.90
2024,05,04,03,33,9.90
2024,05,04,03,38,9.90
2024,05,04,03,43,9.90
2024,05,04,03,48,9.90
2024,05,04,03,53,9.80
2024,05,04,03,58,9.90
2024,05,04,04,03,9.80
2024,05,04,04,08,9.90
2024,05,04,04,13,9.80
2024,05,04,04,18,9.80
2024,05,04,04,23,9.80
2024,05,04,04,28,9.80
2024,05,04,04,33,9.80
2024,05,04,04,38,9.80
2024,05,04,04,43,9.80
2024,05,04,04,48,9.80
2024,05,04,04,53,9.80
2024,05,04,04,58,9.80
2024,05,04,05,03,9.80
2024,05,04,05,08,9.80
2024,05,04,05,13,9.80
2024,05,04,05,18,9.80
2024,05,04,05,23,9.80
2024,05,04,05,28,9.80
2024,05,04,05,33,9.80
2024,05,04,05,38,9.80
2024,05,04,05,43,9.80
2024,05,04,05,48,9.80
2024,05,04,05,53,9.80
2024,05,04,05,58,9.80
2024,05,04,06,03,9.80
2024,05,04,06,08,9.80
2024,05,04,06,13,9.90
2024,05,04,06,18,9.80
2024,05,04,06,23,9.80
2024,05,04,06,28,9.80
2024,05,04,06,33,9.80
2024,05,04,06,38,9.80
2024,05,04,06,43,9.90
2024,05,04,06,48,9.80
2024,05,04,06,53,9.80
2024,05,04,06,58,9.90
2024,05,04,07,03,9.90
2024,05,04,07,08,10.00
2024,05,04,07,13,10.00
2024,05,04,07,18,10.00
2024,05,04,07,23,10.00
2024,05,04,07,28,10.10
2024,05,04,07,33,10.10
2024,05,04,07,38,10.10
2024,05,04,07,43,10.20
2024,05,04,07,48,10.20
2024,05,04,07,53,10.30
2024,05,04,07,58,10.40
2024,05,04,08,03,10.50
2024,05,04,08,08,10.60
2024,05,04,08,13,10.60
2024,05,04,08,18,10.70
2024,05,04,08,23,10.80
2024,05,04,08,28,10.80
2024,05,04,08,33,10.90
2024,05,04,08,38,10.90
2024,05,04,08,43,11.00
2024,05,04,08,48,10.90
2024,05,04,08,53,11.00
2024,05,04,08,58,11.00
2024,05,04,09,03,11.10
2024,05,04,09,08,11.10
2024,05,04,09,13,11.10
2024,05,04,09,18,11.20
2024,05,04,09,23,11.20
2024,05,04,09,28,11.30
2024,05,04,09,33,11.30
2024,05,04,09,38,11.30
2024,05,04,09,43,11.40
2024,05,04,09,48,11.40
2024,05,04,09,53,11.50
2024,05,04,09,58,11.70
2024,05,04,10,03,11.90
2024,05,04,10,08,12.10
2024,05,04,10,13,12.40
2024,05,04,10,18,12.70
2024,05,04,10,23,13.00
2024,05,04,10,28,13.30
2024,05,04,10,33,13.60
2024,05,04,10,38,13.80
2024,05,04,10,43,13.60
2024,05,04,10,48,13.70
2024,05,04,10,53,13.50
2024,05,04,10,58,13.60
2024,05,04,11,03,13.80
2024,05,04,11,08,14.00
2024,05,04,11,13,14.20
2024,05,04,11,18,14.30
2024,05,04,11,23,14.60
2024,05,04,11,28,14.70
2024,05,04,11,33,14.80
2024,05,04,11,38,14.60
2024,05,04,11,43,14.60
2024,05,04,11,53,14.50
2024,05,04,11,58,14.40
2024,05,04,12,03,14.30
2024,05,04,12,08,14.20
2024,05,04,12,13,14.10
2024,05,04,12,18,14.00
2024,05,04,12,23,14.00
2024,05,04,12,28,14.00
2024,05,04,12,33,14.00
2024,05,04,12,38,14.00
2024,05,04,12,43,14.00
2024,05,04,12,48,14.00
2024,05,04,12,53,14.00
2024,05,04,12,58,14.00
2024,05,04,13,03,14.10
2024,05,04,13,08,14.00
2024,05,04,13,13,14.00
2024,05,04,13,18,14.10
2024,05,04,13,23,14.20
2024,05,04,13,28,14.40
2024,05,04,13,33,14.50
2024,05,04,13,38,14.50
2024,05,04,13,43,14.50
2024,05,04,13,48,14.40
2024,05,04,13,53,14.60
2024,05,04,13,58,14.70
2024,05,04,14,03,14.70
2024,05,04,14,08,14.70
2024,05,04,14,13,14.80
2024,05,04,14,18,14.80
2024,05,04,14,23,15.00
2024,05,04,14,28,15.10
2024,05,04,14,33,15.20
2024,05,04,14,38,15.30
2024,05,04,14,43,15.40
2024,05,04,14,48,15.40
2024,05,04,14,53,15.50
2024,05,04,14,58,15.60
2024,05,04,15,03,15.60
2024,05,04,15,08,15.60
2024,05,04,15,13,15.70
2024,05,04,15,18,15.70
2024,05,04,15,23,15.80
2024,05,04,15,28,15.90
2024,05,04,15,33,16.00
2024,05,04,15,38,16.00
2024,05,04,15,43,15.90
2024,05,04,15,48,15.80
2024,05,04,15,53,15.90
2024,05,04,15,58,15.80
2024,05,04,16,03,15.70
2024,05,04,16,08,15.70
2024,05,04,16,13,15.60
2024,05,04,16,18,15.70
2024,05,04,16,23,15.60
2024,05,04,16,28,15.70
2024,05,04,16,33,15.60
2024,05,04,16,38,15.50
2024,05,04,16,43,15.60
2024,05,04,16,48,15.50
2024,05,04,16,53,15.40
2024,05,04,16,58,15.30
2024,05,04,17,03,15.20
2024,05,04,17,08,15.10
2024,05,04,17,13,15.00
2024,05,04,17,18,14.90
2024,05,04,17,23,14.80
2024,05,04,17,28,14.70
2024,05,04,17,33,14.70
2024,05,04,17,38,14.70
2024,05,04,17,43,14.60
2024,05,04,17,48,14.50
2024,05,04,17,53,14.40
2024,05,04,17,58,14.30
2024,05,04,18,03,14.20
2024,05,04,18,08,14.10
2024,05,04,18,13,14.10
2024,05,04,18,18,14.00
2024,05,04,18,23,14.10
2024,05,04,18,28,14.00
2024,05,04,18,33,14.00
2024,05,04,18,38,14.00
2024,05,04,18,43,14.00
2024,05,04,18,48,14.00
2024,05,04,18,53,14.00
2024,05,04,18,58,14.00
2024,05,04,19,03,14.00
2024,05,04,19,08,14.00
2024,05,04,19,13,14.00
2024,05,04,19,18,14.00
2024,05,04,19,23,14.00
2024,05,04,19,28,13.90
2024,05,04,19,33,13.90
2024,05,04,19,38,13.80
2024,05,04,19,43,13.70
2024,05,04,19,48,13.70
2024,05,04,19,53,13.70
2024,05,04,19,58,13.60
2024,05,04,20,03,13.60
2024,05,04,20,08,13.60
2024,05,04,20,13,13.60
2024,05,04,20,18,13.50
2024,05,04,20,23,13.50
2024,05,04,20,28,13.50
2024,05,04,20,33,13.40
2024,05,04,20,38,13.40
2024,05,04,20,43,13.30
2024,05,04,20,48,13.20
2024,05,04,20,53,13.10
2024,05,04,20,58,13.10
2024,05,04,21,03,13.00
2024,05,04,21,08,13.00
2024,05,04,21,13,12.90
2024,05,04,21,18,12.90
2024,05,04,21,23,12.80
2024,05,04,21,28,12.80
2024,05,04,21,33,12.80
2024,05,04,21,38,12.70
2024,05,04,21,43,12.70
2024,05,04,21,48,12.70
2024,05,04,21,53,12.70
2024,05,04,21,58,12.60
2024,05,04,22,03,12.60
2024,05,04,22,08,12.60
2024,05,04,22,13,12.60
2024,05,04,22,18,12.50
2024,05,04,22,23,12.50
2024,05,04,22,28,12.50
2024,05,04,22,33,12.50
2024,05,04,22,38,12.50
2024,05,04,22,43,12.50
2024,05,04,22,48,12.50
2024,05,04,22,53,12.50
2024,05,04,22,58,12.50
2024,05,04,23,03,12.50
2024,05,04,23,08,12.50
2024,05,04,23,13,12.50
2024,05,04,23,18,12.50
2024,05,04,23,23,12.50
2024,05,04,23,28,12.40
2024,05,04,23,33,12.50
2024,05,04,23,38,12.40
2024,05,04,23,43,12.40
2024,05,04,23,48,12.40
2024,05,04,23,53,12.40
2024,05,04,23,58,12.30
